Temp
12 11 11 11 10 10 10 9 9 9 9 9 9 9 8 8 8 8 8 8 9 9 10 10 10 10 10 10 10 10 10 10 10 10 10 10 9 9 9 9 9 8 8 8 8 8 8 8 8 8 8 7 7 7 7 7 7 6 6 6 6 6 6 6 6 6 6 6 6
11 11 11 10 10 10 9 9 9 9 9 9 8 8 8 8 8 8 8 8 8 9 9 10 10 10 10 10 10 10 10 10 10 10 10 9 9 9 9 8 8 8 8 8 8 8 8 8 8 8 7 7 7 7 7 7 7 6 6 6 6 6 6 6 6 6 6 6 5
11 11 10 10 10 10 9 9 9 9 9 8 8 8 8 8 8 8 8 8 8 9 9 10 10 10 10 10 10 10 10 10 10 10 9 9 9 9 8 8 8 8 8 8 8 8 8 8 8 8 7 7 7 7 6 6 6 6 6 6 6 6 6 6 5 5 5 5 5
11 10 10 10 10 9 9 9 9 9 8 8 8 8 8 8 8 8 8 9 9 9 9 10 10 10 10 10 10 10 10 10 10 9 9 9 9 8 8 8 8 8 8 7 7 7 7 7 7 7 7 7 7 7 6 6 6 6 6 6 6 6 6 5 5 5 5 5 5
10 10 10 10 10 9 9 9 9 8 8 8 8 8 8 8 8 8 8 9 9 9 9 9 9 9 10 10 10 10 10 9 9 9 9 9 9 8 8 8 8 8 7 7 7 7 7 7 7 7 7 7 7 6 6 6 6 6 6 6 5 5 5 5 5 5 5 5 5
10 10 10 10 9 9 9 9 9 8 8 8 8 8 8 8 8 8 8 8 8 8 9 9 9 9 9 9 9 9 9 9 9 9 9 9 8 8 8 8 8 8 8 8 7 7 7 7 7 7 7 6 6 6 6 6 6 6 5 5 5 5 5 5 5 5 5 4 4
10 10 9 9 9 9 9 9 9 9 8 8 8 8 8 7 7 7 7 7 7 8 8 9 9 9 9 9 9 9 9 9 9 9 9 8 8 8 8 8 8 8 8 8 8 7 7 7 7 7 6 6 6 6 6 6 6 6 5 5 5 5 5 5 5 5 4 4 4
9 9 9 9 9 9 9 9 9 9 9 8 8 8 8 7 7 7 7 7 7 7 8 9 9 9 9 9 9 9 9 9 9 8 8 8 8 8 8 8 8 8 8 8 7 7 7 7 7 6 6 6 6 6 6 6 6 6 5 5 5 5 5 5 5 4 4 4 4
9 9 9 9 9 9 9 9 9 9 9 9 8 8 7 7 7 7 7 7 7 8 8 9 9 9 9 9 9 9 9 8 8 8 8 8 8 8 8 8 8 8 7 7 7 7 7 7 6 6 6 6 6 6 5 5 5 5 5 5 5 5 5 5 4 4 4 4 4
9 9 9 9 9 9 9 9 9 9 9 9 9 8 8 7 7 7 7 7 7 8 9 9 9 9 9 9 9 9 8 8 8 8 8 8 8 7 7 7 7 7 7 7 7 7 7 6 6 6 6 6 6 5 5 5 5 5 5 5 5 5 4 4 4 4 4 4 4
9 9 9 9 9 9 9 9 9 9 9 9 9 8 8 7 7 7 7 7 8 9 9 9 9 9 9 9 9 8 8 8 8 8 8 8 7 7 7 7 7 7 7 7 7 6 6 6 6 6 6 6 5 5 5 5 5 5 5 4 4 4 4 4 4 4 4 4 4
9 9 9 9 9 9 9 9 9 10 9 9 9 8 8 8 8 7 7 8 9 9 9 9 9 9 9 8 8 8 8 8 8 8 8 7 7 7 7 7 7 7 7 7 7 6 6 6 6 6 5 5 5 5 5 5 5 5 5 4 4 4 4 4 4 4 4 4 4
9 9 9 9 9 9 9 10 10 10 9 9 9 8 8 8 8 8 8 9 9 9 9 9 9 9 9 8 8 8 8 8 8 8 7 7 7 7 7 7 7 7 7 7 6 6 6 6 6 5 5 5 5 5 5 5 5 5 4 4 4 4 4 4 4 4 4 4 4
9 9 9 9 9 9 10 10 10 10 9 9 9 9 8 8 8 8 8 9 9 9 9 9 9 8 8 8 8 8 8 8 8 7 7 7 7 7 7 6 6 6 6 6 6 6 6 6 5 5 5 5 5 5 5 5 5 4 4 4 4 4 4 4 4 4 4 4 3
8 8 9 9 9 9 10 10 10 9 9 9 9 8 8 8 8 8 8 9 9 9 9 8 8 8 8 8 8 8 8 8 7 7 7 7 7 7 6 6 6 6 6 6 6 6 6 5 5 5 5 5 5 5 5 5 4 4 4 4 4 4 4 4 4 4 4 3 3
8 8 9 9 9 9 9 9 9 9 9 8 8 7 7 7 8 8 8 8 8 8 8 8 8 8 8 8 8 8 8 7 7 7 7 7 6 6 6 6 6 6 6 6 6 6 5 5 5 5 5 5 5 5 4 4 4 4 4 4 4 4 4 4 4 3 3 3 3
9 9 9 9 9 9 9 9 9 8 8 7 7 7 7 7 8 8 8 8 8 8 8 8 8 8 8 8 8 8 7 7 7 7 7 6 6 6 6 6 6 6 6 5 5 5 5 5 5 5 5 5 4 4 4 4 4 4 4 4 4 4 4 4 3 3 3 3 3
9 9 9 9 9 9 9 9 8 8 7 7 6 7 7 8 8 8 8 8 8 8 8 8 8 8 8 8 7 7 7 7 7 7 6 6 6 6 6 6 6 5 5 5 5 5 5 5 5 4 4 4 4 4 4 4 4 4 4 4 4 4 4 4 3 3 3 3 3
9 9 9 9 9 9 8 8 8 7 7 7 7 7 7 8 8 8 8 8 8 8 8 8 8 8 8 7 7 7 7 7 7 6 6 6 6 6 6 6 6 5 5 5 5 5 5 4 4 4 4 4 4 4 4 4 4 4 4 4 4 4 4 3 3 3 3 3 3
9 9 9 9 8 8 8 8 7 7 7 7 7 7 8 8 8 8 8 8 8 8 8 8 7 7 7 7 7 7 7 6 6 6 6 6 6 6 6 6 5 5 5 5 5 5 4 4 4 4 4 4 4 4 4 4 4 4 4 4 4 3 3 3 3 3 3 3 3
9 9 9 8 8 8 8 7 7 7 7 7 7 7 8 8 8 8 8 7 8 8 8 8 7 7 7 7 7 6 6 6 6 6 6 6 6 6 5 5 5 5 5 5 4 4 4 4 4 4 4 4 4 4 4 4 4 4 4 4 3 3 3 3 3 3 3 3 2
9 9 8 8 8 8 7 7 7 7 7 7 7 7 7 7 7 7 7 7 7 7 7 7 7 7 7 6 6 6 6 6 6 6 6 6 5 5 5 5 5 5 4 4 4 4 4 4 4 3 3 3 3 3 4 4 4 4 4 3 3 3 3 3 3 3 3 3 2
8 8 8 8 8 7 7 7 7 7 7 7 7 7 7 7 7 7 7 7 7 7 7 7 7 6 6 6 6 6 6 6 6 6 6 5 5 5 5 5 4 4 4 4 4 4 4 4 4 3 3 3 3 3 3 3 3 3 3 3 3 3 3 3 3 3 3 2 2
8 8 7 7 7 7 7 7 7 7 7 7 7 7 7 7 7 7 7 7 7 7 7 6 6 6 6 6 6 6 6 6 6 5 5 5 5 5 4 4 4 4 4 4 4 4 4 4 4 3 3 3 3 3 3 3 3 3 3 3 3 3 3 3 3 2 2 2 2
7 7 7 7 7 7 6 6 6 7 7 7 7 7 7 7 7 7 7 6 6 6 6 6 6 6 6 6 6 6 6 6 6 5 5 5 5 4 4 4 4 4 4 4 4 4 4 3 3 3 3 3 3 3 3 3 3 3 2 2 2 2 2 2 2 2 2 2 2
7 7 7 7 6 6 6 6 6 6 6 6 7 7 6 6 6 6 6 6 6 6 6 6 6 6 6 6 6 6 6 5 5 5 5 4 4 4 4 4 4 4 4 4 3 3 3 3 3 3 2 2 2 2 2 2 2 2 2 2 2 2 2 2 2 2 2 2 2
7 7 6 6 6 6 6 6 6 6 6 6 6 6 6 6 6 6 6 6 6 5 5 5 5 5 5 5 5 5 5 5 5 5 4 4 4 3 3 3 4 4 4 3 3 3 3 3 2 2 2 2 2 2 2 2 2 2 2 1 1 1 1 1 2 2 2 2 2
6 6 6 6 6 6 6 6 6 6 6 6 6 6 6 6 6 6 5 5 5 5 5 5 5 5 5 5 5 5 5 5 4 4 4 4 3 3 3 3 3 3 3 3 3 3 3 2 2 2 1 1 1 1 1 1 1 1 1 1 1 1 1 1 2 2 2 2 1
6 6 6 6 6 6 6 6 6 6 6 6 6 6 6 6 5 5 5 5 5 5 5 5 5 5 5 5 5 5 5 4 4 4 4 3 3 3 3 3 3 3 3 3 2 2 2 2 2 1 1 1 1 1 1 1 1 1 1 0 0 1 1 1 1 1 1 1 1
6 5 5 5 5 5 6 6 6 6 6 6 6 5 5 5 5 5 5 5 5 5 5 5 5 5 5 5 5 4 4 4 4 4 4 3 3 3 3 3 3 3 3 2 2 2 2 2 1 1 1 1 0 0 1 0 0 0 0 0 0 0 1 1 1 1 1 1 1
5 5 5 5 5 5 5 6 6 5 5 5 5 5 5 5 5 5 5 5 5 5 5 5 5 5 5 5 4 4 4 4 4 4 3 3 3 3 2 2 2 2 2 2 2 2 2 1 1 1 1 0 0 0 0 0 0 -0 -0 -0 0 0 1 1 1 1 1 1 1
5 5 4 4 5 5 5 5 5 5 5 5 5 5 5 5 4 4 4 5 5 5 5 5 5 5 4 4 4 4 4 4 4 4 3 3 3 2 2 2 2 2 2 2 2 2 1 1 1 1 0 -0 -0 -0 -0 -0 -0 -0 -0 -0 0 0 1 1 1 1 1 1 1
5 4 4 5 5 5 5 5 5 5 5 5 5 5 4 4 4 4 4 4 5 5 5 5 4 4 4 4 4 4 4 4 4 3 3 3 2 2 2 2 2 2 2 2 2 1 1 1 1 0 -0 -0 -0 -0 -0 -1 -1 -1 -0 -0 0 0 1 1 1 1 1 1 1
5 5 5 5 5 5 5 5 5 5 5 4 4 4 4 4 4 4 4 4 4 4 4 4 4 4 4 4 4 4 4 3 3 3 3 3 2 2 2 2 2 2 2 1 1 1 1 1 0 -0 -0 -1 -1 -1 -1 -1 -1 -1 -1 -0 0 0 1 1 1 1 1 1 1
5 5 5 5 5 5 5 5 5 4 4 4 4 4 4 4 4 4 4 4 4 4 4 4 4 4 4 4 4 4 3 3 3 3 2 2 2 2 2 2 2 1 1 1 1 1 1 0 -0 -0 -1 -1 -1 -1 -1 -1 -1 -1 -1 -0 -0 0 0 0 1 1 1 0 0
5 5 5 5 5 5 5 4 4 4 4 4 4 4 4 4 4 4 4 4 4 4 4 4 4 4 3 3 3 3 3 3 3 2 2 2 2 2 2 2 1 1 1 1 1 0 0 -0 -0 -1 -1 -1 -2 -2 -2 -2 -1 -1 -1 -1 -0 -0 0 0 0 0 0 -0 -0
5 5 5 5 5 5 4 4 4 4 4 3 3 4 4 4 4 4 4 4 4 4 4 3 3 3 3 3 3 3 3 2 2 2 2 2 2 2 2 1 1 1 1 0 0 0 -0 -1 -1 -1 -2 -2 -2 -2 -2 -2 -2 -1 -1 -1 -1 -0 -0 0 0 -0 -0 -1 -1
5 4 4 4 4 4 3 3 3 3 3 3 3 4 4 4 4 4 4 4 4 4 3 3 3 3 3 3 3 3 2 2 2 2 1 1 1 1 1 1 1 1 0 0 -0 -0 -1 -1 -1 -1 -2 -2 -2 -2 -2 -2 -2 -2 -1 -1 -1 -1 -0 -0 -0 -1 -1 -1 -1
3 3 3 3 3 3 3 3 3 3 3 3 3 3 4 4 3 3 4 4 4 4 4 3 3 3 3 3 3 2 2 2 2 2 1 1 1 1 1 1 1 0 0 -0 -0 -1 -1 -1 -1 -2 -2 -2 -2 -2 -2 -2 -2 -2 -2 -1 -1 -1 -1 -1 -1 -1 -1 -2 -2
2 2 2 2 2 2 3 3 3 3 3 3 3 3 3 3 3 3 3 4 4 4 3 3 3 3 3 2 2 2 2 2 2 1 1 1 1 1 1 1 0 0 -0 -0 -1 -1 -1 -1 -2 -2 -2 -2 -2 -2 -3 -2 -2 -2 -2 -1 -1 -1 -1 -1 -2 -2 -2 -2 -2
1 2 2 2 2 3 3 3 3 3 3 3 3 3 3 3 3 3 3 3 3 3 3 3 3 2 2 2 2 2 2 1 1 1 1 1 1 1 1 0 0 -0 -0 -1 -1 -1 -1 -2 -2 -2 -2 -2 -2 -3 -3 -3 -2 -2 -2 -2 -2 -2 -2 -2 -2 -2 -3 -3 -3
Height
731 734 736 738 740 742 745 747 749 751 753 755 757 760 762 765 768 771 773 774 775 777 779 780 780 782 784 786 787 788 788 788 790 792 795 796 797 798 799 799 800 801 801 802 803 804 804 805 805 805 805 806 806 807 807 807 807 808 808 808 808 808 808 809 809 809 809 810 810
731 733 735 738 740 742 744 747 749 751 754 755 757 759 762 765 768 770 772 774 775 776 778 779 780 782 784 785 786 786 787 788 790 793 795 796 797 798 798 799 800 800 801 802 803 803 804 804 804 805 805 805 806 806 807 807 807 807 807 808 808 808 808 808 808 809 809 809 809
730 733 735 737 739 741 744 746 749 751 753 755 758 760 762 765 768 770 772 773 775 776 778 779 780 781 783 784 785 785 786 788 790 793 795 796 797 798 798 799 800 800 801 802 803 803 803 804 804 804 805 805 806 806 806 807 807 807 807 807 808 808 808 808 808 808 808 808 808
730 732 734 736 738 740 742 745 748 750 753 755 758 760 763 765 767 769 771 773 775 776 778 779 780 781 783 783 784 785 786 788 790 793 795 796 797 797 798 799 800 800 801 802 802 803 803 803 804 804 805 805 806 806 806 806 806 807 807 807 807 807 807 807 807 808 808 808 808
730 731 734 736 737 739 741 744 747 750 752 755 757 760 763 765 767 769 771 773 775 776 778 779 780 782 783 783 784 785 787 789 791 793 794 795 796 797 798 799 800 800 801 801 802 802 802 803 803 804 805 805 806 806 806 806 806 806 806 806 807 807 807 807 807 807 807 807 807
729 731 734 736 738 740 742 745 747 749 752 754 757 759 762 764 766 768 770 771 773 775 777 779 780 782 783 784 785 786 787 789 791 792 794 795 796 797 798 798 799 800 800 801 801 801 802 802 803 804 804 805 805 805 805 806 806 806 806 806 806 806 806 806 806 806 807 807 807
729 731 734 736 738 740 743 745 747 750 752 754 756 758 760 763 765 767 768 770 772 774 777 779 780 782 783 784 785 786 787 789 791 792 793 794 795 796 797 798 799 800 800 800 801 801 802 802 803 803 804 805 805 805 805 805 805 805 805 806 806 806 806 806 806 806 806 806 806
729 731 733 735 738 740 742 745 747 750 752 754 756 758 760 761 763 765 767 769 770 773 775 778 780 781 782 783 784 786 787 789 790 792 793 794 795 796 797 798 799 799 800 800 800 801 801 802 803 803 804 804 805 805 805 805 805 805 805 805 805 805 805 805 805 805 805 806 806
730 732 734 736 738 740 742 745 747 749 752 754 756 758 759 761 763 764 766 767 770 772 775 777 778 780 781 782 784 785 787 788 790 791 792 794 795 796 797 798 798 799 799 800 800 800 801 802 803 803 804 804 804 804 804 804 805 805 805 805 805 805 805 805 805 805 805 805 805
729 731 734 736 739 741 743 745 748 750 752 754 756 758 760 761 763 764 765 766 769 772 774 775 777 779 780 782 784 785 786 788 789 790 792 793 795 795 796 797 798 798 799 799 800 800 801 802 802 803 803 804 804 804 804 804 804 804 804 804 805 805 805 805 805 805 805 805 805
728 731 734 736 739 741 743 746 748 750 752 754 756 758 760 762 763 765 765 767 769 771 773 774 775 778 780 782 783 785 786 788 789 790 791 793 794 795 796 797 797 798 798 799 800 800 801 802 802 803 803 803 803 804 804 803 804 804 804 804 804 804 804 804 804 805 805 805 805
728 731 734 736 739 741 744 746 749 750 752 754 756 758 760 762 764 765 766 767 769 770 772 773 775 777 779 781 783 785 786 787 789 790 791 793 794 795 796 796 797 797 798 799 799 800 801 801 802 802 803 803 803 803 803 803 803 803 803 803 803 804 804 804 804 804 804 804 804
729 731 734 737 739 742 744 746 748 750 752 754 756 758 760 762 763 765 766 767 767 769 770 773 775 777 779 781 783 784 785 787 788 790 791 792 794 795 795 796 796 797 798 798 799 800 800 801 801 802 802 802 803 803 803 803 803 803 803 803 803 803 803 804 804 804 804 804 803
729 731 734 737 740 742 744 746 748 750 752 754 756 758 760 761 764 765 766 766 766 768 770 773 775 778 780 781 782 784 785 786 788 790 791 792 793 794 795 795 796 797 797 798 799 799 800 800 801 801 802 802 802 802 802 802 802 802 802 802 802 803 803 803 803 803 803 803 803
729 731 734 737 740 742 744 746 748 750 752 754 756 758 760 762 764 765 766 766 766 768 770 773 776 778 780 781 782 783 785 786 788 789 790 792 793 794 794 795 796 796 797 798 798 799 800 800 800 801 801 801 801 801 802 802 802 802 802 802 802 802 802 803 803 803 802 802 802
730 732 735 737 740 742 744 746 748 750 752 754 757 759 761 763 765 765 766 766 767 769 772 774 776 778 780 781 782 783 785 786 788 789 790 791 792 793 794 795 795 796 797 797 798 799 799 800 800 800 800 800 801 801 801 801 801 801 801 802 802 802 802 802 802 802 802 802 801
730 733 735 737 740 742 743 745 747 750 752 754 756 759 761 763 764 765 765 766 768 770 773 775 776 777 779 780 782 783 785 786 787 789 790 791 792 793 794 794 795 796 796 797 798 798 799 799 799 800 800 800 800 800 800 800 801 801 801 801 801 801 801 801 801 801 801 801 800
730 733 735 738 740 741 743 745 747 749 751 754 756 758 760 762 763 764 765 767 769 770 773 775 776 777 778 780 781 783 784 786 787 789 790 791 792 792 793 794 795 795 796 797 797 798 798 799 799 799 799 800 800 800 800 800 800 800 801 801 801 801 801 801 801 800 800 800 800
731 734 736 738 740 741 743 744 746 749 751 753 755 757 760 761 762 763 765 768 770 771 772 774 775 777 778 780 781 783 785 786 787 789 790 790 791 792 793 794 794 795 795 796 797 797 798 798 799 799 799 799 800 800 800 800 800 800 800 800 800 800 800 800 800 800 800 799 799
731 734 736 738 739 741 743 745 746 749 751 753 755 757 759 760 761 763 765 768 770 771 772 773 775 776 778 780 781 783 785 786 787 788 790 790 791 792 792 793 794 795 795 796 796 797 797 798 798 799 799 799 799 800 800 800 800 800 800 800 800 800 800 799 799 799 799 798 798
732 734 736 738 740 741 743 745 747 750 752 754 755 757 759 760 761 763 765 768 770 771 772 773 775 776 778 780 781 783 785 786 787 788 789 790 791 791 792 793 794 794 795 795 796 796 797 797 798 798 798 799 799 799 799 800 800 800 799 799 799 799 799 798 798 798 798 797 797
733 735 737 738 740 742 744 747 749 751 753 754 756 758 759 760 762 764 766 768 769 770 772 773 775 776 778 780 781 783 784 786 787 788 789 790 790 791 792 793 793 794 795 795 795 796 796 797 797 798 798 798 799 799 799 799 799 799 799 799 798 798 798 798 797 797 797 796 796
734 735 737 740 741 744 746 748 750 752 754 755 757 758 759 760 762 764 766 768 769 770 772 774 775 777 778 780 781 783 784 786 787 788 789 790 790 791 792 792 793 794 794 795 795 796 796 796 797 797 797 798 798 798 798 798 798 798 797 797 797 797 797 797 796 796 796 795 795
735 736 738 740 743 745 748 750 752 754 755 756 757 758 759 761 763 765 766 768 770 771 773 774 776 777 779 780 781 783 784 786 787 788 789 790 790 791 791 792 793 793 794 795 795 795 796 796 796 797 797 797 797 797 797 797 797 797 796 796 796 796 796 795 795 795 795 795 795
735 737 739 741 744 746 748 751 753 755 756 757 757 758 760 762 763 765 767 768 770 771 773 775 776 778 779 781 782 784 785 786 787 788 789 790 790 791 791 792 793 793 794 795 795 795 796 796 796 796 796 796 796 796 796 796 796 796 796 795 795 795 795 795 794 794 794 794 794
736 738 740 742 744 746 748 751 753 755 756 757 758 759 761 762 764 765 767 769 770 772 774 775 777 778 780 781 783 784 785 786 787 788 789 789 790 791 791 792 793 793 794 795 795 795 795 796 796 796 796 796 796 796 796 795 795 795 795 795 794 794 794 794 793 793 793 793 793
738 740 741 742 744 746 748 750 752 754 755 757 758 760 761 763 764 766 767 769 771 772 774 775 777 779 780 782 783 784 785 786 787 788 789 789 790 791 791 792 792 793 794 794 795 795 795 795 795 796 796 795 795 795 795 795 795 794 794 794 793 793 793 793 793 792 792 792 792
740 741 743 744 745 747 749 750 752 754 755 757 758 760 761 763 765 766 768 770 771 773 774 776 778 780 781 782 784 785 785 786 787 788 789 789 790 791 791 792 792 793 794 794 794 795 795 795 795 795 795 795 795 795 795 794 794 793 793 793 793 792 792 792 792 792 791 791 791
742 744 745 746 747 749 750 751 752 754 755 757 759 760 762 763 765 767 769 770 772 773 775 777 779 780 781 783 784 785 785 786 787 788 789 789 790 791 791 792 792 793 793 794 794 794 795 795 795 795 795 795 795 794 794 793 793 793 792 792 792 792 791 791 791 791 790 790 790
744 745 747 748 750 750 751 752 753 754 755 757 759 760 762 764 766 768 770 771 772 774 775 777 779 780 782 783 784 785 786 787 787 788 789 789 790 791 791 792 792 793 793 794 794 794 794 794 794 794 795 794 794 794 793 793 792 792 791 791 791 791 791 790 790 790 790 789 789
745 747 749 750 751 752 753 753 754 755 756 758 760 761 763 765 767 769 770 772 773 775 776 778 779 781 782 783 784 785 786 787 787 788 789 789 790 791 791 792 792 792 793 793 794 794 794 794 794 794 794 794 793 793 792 792 791 791 791 790 790 790 790 790 790 789 789 788 788
746 748 750 751 752 753 754 754 755 756 757 759 760 762 764 766 768 770 771 773 774 776 777 779 780 781 782 783 785 785 786 787 787 788 789 789 790 791 791 792 792 792 793 793 793 793 794 794 794 793 793 793 793 792 792 791 791 790 790 790 790 789 789 789 789 788 788 787 787
746 749 751 752 753 754 755 755 756 757 759 760 762 763 765 767 769 770 772 774 775 777 778 779 780 781 783 784 785 785 786 787 787 788 789 789 790 791 791 792 792 792 792 793 793 793 793 793 793 793 793 792 792 791 791 790 790 790 789 789 789 789 788 788 788 787 787 786 786
747 749 751 752 753 754 755 756 757 759 760 761 763 765 766 768 770 771 773 775 776 778 779 780 781 782 783 784 785 785 786 787 787 788 789 789 790 791 791 792 792 792 792 792 793 793 793 793 792 792 792 791 791 790 790 790 789 789 789 788 788 788 787 787 787 786 786 786 785
748 750 751 753 754 755 756 757 758 760 761 763 765 766 767 769 770 772 774 775 777 778 779 780 781 782 783 784 785 785 786 787 787 788 789 790 790 791 791 792 792 792 792 792 792 792 792 792 792 791 791 791 790 790 789 789 789 788 788 787 787 787 787 786 786 786 785 785 785
748 750 751 753 754 755 756 757 759 760 762 764 765 767 769 770 772 774 775 776 777 779 780 781 782 783 784 785 785 786 786 787 787 788 789 790 790 791 791 792 792 792 792 792 792 792 791 791 791 791 790 790 790 789 789 788 788 787 787 787 786 786 786 786 785 785 785 784 784
750 750 752 753 754 755 756 758 760 761 763 765 766 768 770 771 773 775 776 777 778 779 780 781 782 783 784 785 785 786 786 787 788 788 789 790 790 790 791 791 791 791 791 791 791 791 791 791 791 790 790 790 789 789 788 788 787 787 786 786 786 786 785 785 785 784 784 783 783
750 751 752 754 755 756 758 759 761 763 765 766 768 769 771 772 774 775 777 778 778 780 780 782 783 783 784 785 785 786 787 787 788 789 789 790 790 790 790 791 791 791 791 791 791 790 790 790 790 790 790 789 789 788 788 787 787 786 786 785 785 785 785 785 784 783 783 783 782
751 752 754 755 756 758 759 761 762 764 765 767 769 770 772 773 775 776 777 778 779 780 781 782 783 784 784 785 785 786 787 787 788 789 789 789 790 790 790 790 790 790 791 790 790 790 790 790 790 790 789 789 788 788 787 787 786 786 785 785 785 785 784 784 783 783 782 782 782
752 754 755 757 758 760 761 762 764 765 766 768 770 771 773 774 776 777 778 779 780 780 781 782 783 784 784 785 785 786 787 787 788 788 789 789 789 790 790 790 790 790 790 790 790 790 790 790 790 789 789 788 788 787 787 786 786 785 785 785 785 784 783 783 783 782 782 781 781
755 756 757 759 760 761 762 763 765 766 767 769 770 772 774 775 776 777 779 780 780 781 782 783 783 784 785 785 786 786 787 787 788 788 788 789 789 789 789 789 789 789 790 790 790 790 790 789 789 789 788 788 787 787 786 786 785 785 785 785 784 783 783 782 782 782 781 781 781
Wind_Speed
34 34 34 34 33 32 30 29 30 30 30 28 27 28 29 29 28 25 25 26 28 29 29 29 29 28 28 26 25 24 23 22 21 20 19 19 19 19 18 17 16 16 15 14 13 11 10 10 10 10 10 9 8 6 5 3 4 4 4 3 3 3 3 2 2 2 2 2 2
34 34 34 33 32 31 29 28 29 29 28 27 27 29 30 29 26 24 24 25 26 28 29 28 28 28 28 27 25 24 23 23 21 20 20 20 19 19 18 17 16 16 15 14 13 11 10 8 8 8 9 8 7 6 4 3 3 4 4 4 3 3 3 2 2 2 2 3 3
34 34 33 33 32 31 29 28 29 29 28 26 27 28 28 26 24 24 25 26 27 27 28 27 28 28 28 26 25 24 23 23 22 21 21 20 20 19 18 17 16 15 15 14 13 11 9 7 7 7 7 8 7 6 4 3 2 3 4 4 4 4 3 2 2 2 3 3 4
35 34 33 33 32 32 30 30 30 29 28 26 26 26 25 23 23 24 25 26 26 26 25 26 27 27 27 26 25 24 23 23 22 22 21 21 20 19 18 17 16 15 15 14 12 11 9 7 6 6 7 7 7 6 5 4 3 2 3 4 4 4 3 2 2 2 3 4 5
34 34 33 33 33 32 31 30 31 30 28 26 26 24 23 22 23 25 25 26 25 24 23 25 26 26 26 26 25 24 23 23 22 22 22 21 20 19 18 17 16 16 15 14 13 11 9 8 7 7 7 7 7 7 6 5 4 3 3 4 3 3 2 2 2 3 4 4 5
33 33 32 32 32 31 30 30 31 29 27 26 25 24 23 24 26 27 27 27 25 23 23 24 25 26 26 25 25 24 23 23 22 22 22 21 20 19 18 17 16 16 15 14 12 11 9 8 7 7 8 8 7 7 6 5 4 3 3 3 2 2 2 2 3 3 4 5 5
33 32 31 31 31 29 29 29 29 28 26 25 25 25 25 27 28 29 29 29 27 24 23 25 26 26 26 26 25 24 24 23 23 22 22 21 20 19 18 17 16 15 14 12 11 10 8 7 7 7 7 7 7 7 6 4 3 2 3 3 3 3 3 3 4 4 5 5 5
32 31 31 30 30 29 29 30 28 26 25 24 25 26 28 30 30 30 30 29 27 26 26 27 28 28 27 27 26 25 24 24 23 22 21 21 20 19 17 16 15 13 12 11 10 9 8 7 6 6 6 6 6 6 5 3 1 1 3 4 3 3 4 4 5 5 5 6 6
30 29 29 29 28 28 29 29 27 25 24 25 26 28 30 31 31 31 29 28 28 28 29 30 30 29 28 27 26 26 25 24 23 22 22 20 19 18 17 16 14 13 11 10 9 8 8 7 7 6 6 5 6 6 5 3 1 0 2 3 3 4 4 5 5 5 6 6 6
29 29 28 27 27 27 28 27 26 25 25 26 28 29 30 31 31 30 29 29 30 32 32 31 31 29 28 27 26 26 25 24 23 23 22 20 19 18 17 15 14 12 11 10 9 8 7 7 7 6 6 5 5 6 5 3 1 0 1 1 2 3 4 4 5 5 6 6 7
30 29 28 26 26 26 26 26 25 25 26 28 29 30 30 30 30 29 29 31 33 34 33 32 31 29 28 27 26 26 25 24 23 22 21 20 19 17 16 14 13 12 11 10 9 8 8 7 7 6 5 4 5 5 4 3 2 1 1 1 2 3 4 4 5 5 6 7 7
29 28 27 26 26 26 26 25 25 25 27 29 31 31 31 30 30 29 30 33 34 34 33 32 31 29 28 27 26 25 24 23 23 22 21 20 18 17 15 13 12 11 11 10 9 8 8 8 7 6 5 4 4 4 4 3 2 2 2 2 3 4 4 5 5 6 6 7 8
29 28 27 26 26 26 26 26 26 27 28 30 31 31 31 31 31 31 32 34 34 34 33 31 30 29 28 27 26 25 24 23 22 21 20 19 17 16 15 13 12 11 10 9 8 8 8 8 8 7 5 4 4 4 3 3 3 3 3 3 4 4 5 6 6 6 7 8 9
29 28 27 26 26 26 26 26 27 28 29 30 30 30 31 31 31 32 33 33 34 33 32 30 28 28 27 27 26 25 23 22 21 20 19 18 17 16 15 13 12 10 9 8 7 8 8 8 7 6 6 5 4 4 4 4 4 4 4 4 5 5 6 6 7 7 8 9 9
29 28 27 26 26 26 26 27 27 28 29 29 28 28 29 29 30 31 32 32 33 33 31 29 28 27 26 26 25 24 23 22 21 20 19 17 16 15 14 13 11 10 8 7 7 7 7 7 6 6 5 5 5 4 4 4 4 4 4 5 6 6 7 7 7 8 8 9 9
28 27 27 26 26 26 27 27 27 27 28 28 27 27 27 27 29 30 31 32 32 31 30 29 28 27 26 25 24 23 22 21 21 20 19 17 16 15 14 12 11 9 7 7 7 6 6 5 5 4 4 4 4 4 4 4 4 4 5 6 6 7 7 8 8 9 9 9 10
27 27 27 27 27 27 27 27 27 27 28 28 27 27 27 27 29 30 31 32 31 30 29 28 28 27 26 24 23 22 22 21 20 19 18 17 16 14 13 12 10 9 7 7 6 5 4 4 3 2 2 1 2 2 2 3 4 4 5 6 7 7 8 8 9 9 10 10 10
27 27 27 27 27 28 28 28 28 28 29 29 28 27 28 29 30 30 30 31 31 30 29 28 27 27 26 24 23 22 21 20 19 18 17 16 15 14 13 11 10 9 8 8 7 5 4 3 2 1 0 1 1 2 2 3 4 5 6 7 7 8 8 9 9 10 10 11 11
27 27 27 27 27 28 29 29 30 30 30 29 29 29 30 31 32 31 31 30 30 30 29 28 27 26 25 24 23 21 20 19 18 17 16 15 14 13 12 11 10 10 9 9 8 6 5 4 2 1 1 1 2 3 4 4 5 6 7 8 8 9 9 10 10 10 11 11 12
27 27 27 27 28 29 30 30 30 30 30 30 30 31 31 32 33 32 31 30 29 29 29 29 27 26 25 24 22 21 20 19 18 17 16 15 14 13 11 10 10 10 9 9 8 7 5 4 3 2 2 2 3 4 5 6 7 7 8 9 9 10 10 10 11 11 11 12 12
27 27 27 28 29 30 31 31 30 30 31 31 32 32 32 32 32 32 31 30 30 29 29 28 27 26 25 23 22 21 20 19 18 17 16 15 13 12 10 10 9 9 9 8 7 6 5 4 3 2 2 2 3 4 5 6 7 8 9 10 10 11 11 11 11 12 12 12 12
27 27 28 29 30 31 31 31 31 31 32 32 32 32 32 32 32 31 31 30 30 29 28 27 26 25 25 24 23 21 20 19 18 17 16 14 12 11 10 9 9 9 8 7 6 5 4 4 3 2 2 2 3 4 5 6 7 8 9 10 10 11 11 12 12 12 12 12 13
26 27 29 30 31 31 32 31 31 32 32 32 32 32 32 31 31 31 30 29 29 28 27 26 26 25 24 23 22 21 20 19 17 16 14 13 12 11 10 10 9 8 7 5 4 3 3 3 3 3 3 2 3 4 5 6 7 8 9 10 10 11 12 12 12 13 13 13 13
27 28 29 30 31 31 31 31 31 31 31 31 31 31 32 31 31 30 29 29 28 27 26 26 25 24 23 22 21 20 19 18 16 15 13 12 11 11 10 9 8 7 5 4 3 2 1 1 2 3 3 4 4 5 6 7 8 9 10 10 11 12 12 12 13 13 13 13 13
28 29 30 31 31 31 31 31 31 30 30 30 31 31 31 31 30 30 29 28 27 27 26 25 24 23 22 20 19 18 17 16 15 14 13 12 11 11 10 8 7 5 4 3 2 1 0 1 2 3 3 4 5 6 7 7 8 9 10 11 11 12 13 13 13 13 13 13 13
29 30 31 31 31 31 31 31 31 30 30 30 31 31 31 30 30 29 29 28 27 26 25 24 23 22 20 19 18 17 16 15 14 13 13 12 11 10 8 7 5 4 3 3 2 1 1 1 1 2 3 4 5 6 7 8 9 9 10 11 11 12 13 14 14 14 13 13 12
29 30 30 31 31 31 32 32 31 31 31 31 31 30 30 30 29 29 28 28 27 26 25 23 22 21 20 18 17 16 15 14 13 13 12 12 11 10 8 5 4 3 3 2 2 2 1 1 2 3 4 5 6 7 8 9 10 10 10 10 11 12 13 14 14 14 13 12 12
29 29 30 30 31 31 32 31 31 31 31 31 30 30 30 29 29 29 28 27 26 25 24 23 21 20 19 18 17 16 15 14 13 12 12 12 11 9 7 5 3 2 2 2 3 3 2 2 2 3 4 6 7 8 9 10 11 11 11 11 11 12 13 13 14 13 13 12 12
28 29 29 29 30 30 30 30 30 30 30 30 30 30 30 29 29 28 27 27 26 25 24 22 21 20 19 18 17 15 14 13 13 12 12 11 10 9 6 4 2 1 1 2 3 3 3 3 3 4 4 6 7 9 10 11 11 11 11 12 12 12 13 13 13 13 13 13 13
27 28 28 29 29 29 29 29 30 30 30 30 30 30 29 28 28 27 26 25 25 24 23 22 20 19 18 17 16 15 14 13 12 11 11 10 10 8 6 4 2 1 0 2 4 5 5 4 4 4 5 6 8 9 10 11 11 12 12 12 12 13 13 14 14 14 13 13 13
27 27 28 28 28 28 28 29 29 29 29 29 29 29 28 27 26 25 25 24 24 23 22 20 20 19 17 16 15 14 13 12 11 10 10 9 8 7 6 4 3 2 2 2 4 5 6 6 5 5 6 7 8 10 11 11 12 12 12 13 13 13 13 14 14 14 13 13 13
27 27 27 27 27 27 28 28 29 29 29 29 28 28 27 26 25 25 24 23 23 22 20 19 19 18 17 15 14 14 13 12 11 10 9 8 7 7 5 4 3 3 3 3 4 6 7 7 7 6 7 7 9 10 11 11 11 12 12 13 13 13 14 14 14 13 13 13 13
27 27 27 27 27 27 27 28 28 28 28 27 27 27 26 26 25 24 23 22 21 20 19 19 18 17 16 15 14 13 12 11 10 9 8 8 7 6 5 4 4 4 4 5 6 7 8 8 8 8 8 8 9 10 11 11 11 11 12 13 13 13 13 13 13 13 13 13 13
27 27 27 27 27 27 27 27 27 27 27 27 26 26 26 26 25 24 22 21 20 19 18 18 17 16 15 14 13 12 11 10 9 8 8 7 7 6 5 4 4 5 6 6 7 8 9 9 9 9 9 9 10 10 10 10 10 11 12 12 12 12 12 12 12 13 13 13 12
27 27 27 27 27 27 27 27 27 27 27 26 26 26 26 25 24 23 22 21 20 19 18 17 16 15 14 13 11 11 10 9 9 8 7 7 6 5 4 3 4 5 6 7 8 9 9 10 10 10 9 10 10 10 10 10 11 11 12 12 12 12 11 11 11 12 11 11 10
27 27 27 27 27 27 27 27 27 27 27 27 26 26 25 24 23 22 21 20 19 19 18 17 15 14 13 12 11 10 9 8 7 7 6 6 5 4 4 2 2 4 6 7 8 9 10 10 10 10 10 10 10 10 10 10 10 11 11 11 11 11 11 11 11 10 10 9 8
26 26 26 26 26 26 26 27 27 27 26 26 26 25 24 23 22 21 20 19 19 18 17 16 15 14 13 12 10 9 8 7 6 5 5 4 4 4 4 3 2 3 5 7 8 9 10 10 10 9 10 10 11 10 10 10 10 11 11 11 11 11 10 10 10 9 9 9 9
25 25 25 26 26 26 26 26 26 26 26 26 25 24 23 22 21 20 18 18 18 18 17 15 14 13 12 11 10 9 8 7 6 5 4 3 3 2 2 2 2 2 3 6 7 9 9 9 9 9 9 10 10 11 11 11 11 11 11 11 11 10 10 10 9 9 10 10 11
25 26 26 26 25 25 25 26 26 26 26 25 25 23 22 21 20 19 18 17 17 16 16 14 13 12 10 9 9 8 7 6 6 5 4 3 2 1 1 1 1 1 2 4 6 7 7 8 8 8 9 10 10 10 10 10 11 11 11 11 11 11 10 10 10 11 12 12 13
26 26 26 25 25 25 25 25 26 26 25 25 24 23 22 21 20 19 17 16 15 15 14 13 12 11 9 8 7 6 5 4 4 3 2 1 1 2 3 3 2 1 1 2 4 5 6 7 8 8 9 9 10 10 10 10 10 11 11 11 11 11 11 11 12 13 13 14 14
25 25 25 24 24 25 26 26 26 25 25 24 24 23 22 21 20 18 17 16 15 14 13 12 11 10 9 8 6 5 4 3 2 1 0 2 3 3 4 4 3 2 1 2 3 5 6 8 8 8 8 9 9 9 9 9 10 10 11 11 12 12 13 13 14 14 14 14 14
Wind_Direction
159 159 159 159 158 157 157 156 157 157 157 156 156 157 157 158 158 159 159 158 157 156 156 156 156 156 157 159 158 156 152 148 148 152 157 161 162 163 163 162 161 158 155 153 155 158 159 156 153 152 155 161 169 176 175 156 143 147 153 157 162 177 193 203 205 207 216 236 256
158 159 159 158 157 156 154 153 154 156 156 155 155 156 156 157 158 158 159 159 157 157 156 156 157 159 159 159 158 154 151 149 152 157 162 164 164 164 163 162 159 156 155 155 158 161 162 157 151 148 150 155 163 172 174 161 141 140 147 154 173 197 213 219 218 214 221 232 243
157 157 157 156 156 154 152 152 153 154 153 153 154 154 155 156 157 158 159 159 157 157 156 157 158 160 159 158 156 153 152 153 157 162 165 166 165 164 162 160 157 155 155 156 159 161 161 157 149 140 139 144 154 166 178 182 163 148 152 168 189 208 220 223 217 218 228 241 250
156 156 156 156 156 155 154 153 153 153 152 152 152 153 154 155 156 157 157 157 157 156 156 157 158 159 158 156 155 154 155 157 161 164 166 166 165 163 161 159 156 156 156 157 158 159 161 160 152 141 137 142 155 169 182 193 197 180 176 188 203 214 220 216 206 218 235 250 261
156 156 157 157 157 156 155 154 153 152 152 152 152 153 154 154 155 155 155 155 156 156 156 158 158 157 156 155 155 156 158 161 163 165 166 164 163 162 160 159 158 159 159 160 159 161 162 163 157 149 148 154 165 177 188 200 202 197 195 205 216 224 224 211 214 227 246 260 271
155 155 156 156 156 155 154 154 154 153 152 152 152 153 154 155 155 156 156 156 157 156 157 158 158 157 156 156 157 158 160 162 164 165 165 163 162 161 161 161 162 162 162 161 161 161 163 164 160 157 159 167 175 186 196 204 201 192 188 196 214 236 242 236 238 249 262 272 277
153 153 154 154 155 153 152 153 154 153 152 153 153 154 154 156 156 157 157 157 157 156 157 159 159 157 157 157 158 159 160 162 164 165 164 162 161 162 163 165 165 164 162 160 159 158 160 162 162 163 167 174 180 190 200 205 199 179 171 175 192 223 242 250 259 267 275 280 280
152 152 152 153 153 153 153 154 153 153 153 154 155 155 155 156 157 157 157 157 156 157 159 160 160 159 158 158 158 159 161 162 164 163 162 161 161 163 165 166 166 163 159 156 154 154 157 162 165 169 172 175 179 188 200 211 207 161 158 167 183 211 237 253 267 277 282 284 282
149 150 151 152 152 153 154 154 153 153 154 155 156 156 156 156 157 157 157 156 157 158 160 160 159 159 158 158 159 160 161 163 163 162 161 161 162 164 166 166 163 159 154 151 151 153 158 163 168 174 179 178 179 187 202 219 235 148 146 167 187 212 235 254 269 278 282 282 280
147 148 149 149 151 152 153 153 153 154 155 155 156 156 156 157 158 157 157 156 157 158 159 158 157 157 157 159 160 161 162 162 162 161 161 162 163 165 165 164 160 155 151 150 153 157 160 163 168 177 183 184 182 191 206 226 249 271 149 187 213 231 247 261 272 277 277 277 276
147 148 148 149 150 151 152 152 154 155 155 156 157 157 157 158 159 158 156 156 156 157 157 156 156 156 157 159 160 161 161 161 161 161 161 162 164 165 164 162 158 154 153 154 158 161 162 164 170 179 185 186 188 196 208 228 252 270 249 248 255 261 266 273 276 276 275 274 273
147 148 148 149 150 150 152 153 154 155 155 156 157 157 157 159 159 157 156 156 155 155 155 155 155 157 158 159 160 160 160 160 160 160 161 162 163 162 160 158 157 156 157 159 162 164 165 166 172 179 184 186 187 193 204 223 241 255 258 264 269 272 275 278 278 276 274 274 274
148 148 148 148 149 151 152 154 155 155 155 155 155 156 157 158 158 157 156 155 153 151 151 153 155 157 158 158 159 159 159 159 159 159 160 160 160 158 156 156 157 159 162 164 165 165 167 169 173 176 179 183 186 191 203 220 236 249 258 263 267 270 273 275 275 274 274 275 276
148 147 147 148 150 152 153 154 154 154 154 153 153 154 155 156 157 156 155 152 149 148 149 152 155 157 158 158 157 157 157 157 157 157 157 157 157 156 155 157 160 164 165 164 163 163 165 168 170 173 175 179 186 196 210 226 241 254 261 264 265 267 270 271 273 274 275 277 278
147 147 148 149 151 153 154 154 153 153 152 152 151 150 151 152 154 154 152 148 147 147 149 151 153 155 156 157 156 155 155 155 155 155 155 155 155 156 157 160 163 165 165 160 157 157 160 164 167 171 175 180 190 201 215 231 246 258 265 267 268 269 270 271 273 275 277 278 279
146 147 148 150 152 153 153 153 151 151 151 150 148 148 148 150 151 150 148 146 145 147 149 150 151 152 153 154 154 153 153 153 153 154 154 154 155 157 158 161 163 163 160 153 149 150 153 157 161 167 173 183 194 207 218 233 246 257 263 267 270 271 272 273 275 276 277 277 279
146 148 150 152 153 153 152 151 150 150 149 148 148 148 149 150 149 148 146 145 145 147 148 150 150 150 150 150 151 151 151 151 152 153 153 154 155 157 158 160 160 158 153 146 142 143 145 146 149 153 169 192 212 227 237 247 253 259 263 267 270 272 273 275 277 277 278 278 278
147 149 151 152 152 152 151 149 149 149 149 149 149 150 150 150 148 146 145 146 147 147 147 148 148 148 148 147 148 148 149 149 150 151 152 153 155 157 158 159 159 155 151 146 145 145 148 150 154 162 234 291 291 286 280 274 270 268 269 270 272 273 275 277 279 279 279 278 278
148 150 151 152 151 150 149 148 148 148 149 149 150 150 150 149 147 145 145 146 148 148 147 146 146 146 146 145 145 145 146 146 147 148 150 153 156 158 159 158 156 154 152 151 152 154 157 161 169 190 245 278 287 288 284 281 278 275 274 273 274 275 277 279 280 280 279 279 279
149 150 151 150 149 148 148 147 147 148 148 148 148 148 148 147 146 145 145 146 148 148 147 145 144 143 143 143 142 142 143 145 146 148 150 154 156 158 158 155 152 150 149 150 151 153 155 158 169 194 234 263 276 281 283 282 280 279 278 277 277 278 279 280 281 281 280 280 281
149 149 148 148 147 147 146 146 145 145 146 146 146 145 145 144 144 145 145 146 147 146 145 143 142 142 141 141 140 141 143 146 148 150 152 156 157 156 153 148 143 141 140 141 143 146 150 159 174 197 235 269 282 286 287 286 285 284 283 282 281 281 281 282 281 281 281 281 282
148 147 146 145 145 145 144 144 143 143 143 143 143 143 142 142 142 143 144 145 145 143 142 142 141 141 141 141 142 143 145 148 151 154 156 157 155 152 146 141 136 134 135 138 142 149 157 169 178 190 220 266 282 285 285 286 286 286 285 284 284 284 284 283 282 281 280 281 283
144 143 142 142 142 141 141 141 141 141 141 141 140 140 139 139 140 141 141 141 141 140 140 140 140 141 142 144 145 147 149 151 153 155 156 154 150 144 139 136 135 136 137 137 141 149 165 180 188 193 208 238 262 273 277 280 281 283 283 283 284 285 285 284 283 282 281 282 284
140 139 139 140 139 138 138 139 139 139 138 138 137 137 136 136 137 137 137 137 137 137 137 138 139 141 143 146 149 151 152 152 152 151 150 146 141 137 135 136 137 134 127 117 115 123 159 209 215 218 224 237 250 260 267 272 276 279 281 283 284 285 284 284 283 283 283 284 286
139 138 138 138 138 137 137 138 138 138 137 136 135 135 134 134 134 135 134 134 135 136 136 137 139 141 144 146 149 151 152 151 149 146 142 137 134 132 132 135 134 124 108 97 94 90 95 242 247 250 254 258 264 269 274 277 280 282 282 283 284 285 285 285 284 284 284 285 286
138 138 138 139 138 138 138 139 139 137 135 134 133 132 132 132 133 133 133 133 133 135 136 137 138 141 143 145 147 148 147 146 143 140 136 131 129 128 131 135 131 116 95 79 66 58 36 323 300 294 290 289 289 291 292 292 293 291 288 286 285 285 287 287 287 286 285 285 286
138 139 139 139 138 138 139 139 138 136 134 132 131 131 131 131 132 132 132 132 132 134 135 136 137 139 142 144 144 143 141 139 137 134 131 128 127 128 133 138 133 110 81 57 39 26 12 353 333 317 308 302 301 301 301 302 301 300 296 292 289 289 289 290 289 288 287 286 286
138 139 138 138 137 137 137 137 135 133 132 131 130 130 130 131 130 130 130 131 132 133 133 134 136 139 141 142 141 140 139 136 133 130 128 127 127 130 136 144 140 110 65 37 21 11 1 350 330 316 307 302 300 301 302 304 304 303 299 295 291 290 290 291 291 290 289 289 289
138 137 136 135 135 135 134 133 132 131 130 129 129 129 129 129 129 129 130 131 132 132 132 134 137 140 140 140 140 139 136 133 131 128 127 127 127 131 138 152 160 146 49 19 9 4 357 344 327 314 307 303 299 299 302 304 304 302 298 295 292 290 291 291 292 291 291 292 292
136 135 133 133 132 132 131 130 129 129 128 128 128 127 127 127 127 128 129 130 131 132 134 137 139 140 139 139 138 136 133 130 128 126 125 125 127 132 142 162 188 210 294 355 360 358 353 343 328 316 309 304 301 300 302 303 302 300 298 295 293 292 292 292 292 292 292 293 294
134 133 131 130 130 129 128 128 127 126 126 126 126 125 125 125 126 127 129 130 132 134 138 140 140 139 138 136 134 131 129 127 125 123 122 123 127 133 145 171 208 236 270 324 345 350 348 342 331 320 313 310 305 303 303 303 302 300 298 297 296 296 295 294 293 292 293 294 295
132 131 130 129 128 127 126 125 124 124 124 123 123 123 123 124 125 127 129 131 133 136 138 139 138 136 134 132 130 128 126 124 122 121 121 122 127 133 146 175 214 245 271 303 325 336 340 340 334 326 320 315 309 306 304 304 304 302 301 300 300 299 298 296 295 295 295 295 296
132 131 129 128 126 124 123 122 122 121 121 121 121 121 122 123 125 126 128 131 134 135 136 137 135 133 131 129 127 125 123 121 119 118 118 120 125 133 147 176 213 245 271 289 306 320 330 335 335 331 326 319 311 307 307 307 307 307 305 304 303 301 300 298 297 297 298 298 298
131 130 128 126 124 122 121 120 120 119 119 118 119 120 122 123 123 125 126 130 132 134 134 133 131 129 128 127 125 123 120 118 115 114 113 116 121 130 147 180 219 247 270 282 295 308 321 331 335 334 329 322 315 311 311 312 312 310 309 307 305 303 302 300 299 300 301 300 299
130 128 126 124 122 121 119 119 118 118 117 117 117 119 121 122 123 125 127 130 132 132 130 129 128 127 125 124 122 119 117 114 112 111 111 115 121 129 146 184 230 255 270 281 291 304 317 327 334 335 330 323 318 317 318 317 316 314 312 310 309 308 306 305 304 304 303 302 301
127 125 123 122 120 119 118 118 117 117 117 117 118 119 121 123 125 128 131 133 133 131 129 128 127 126 124 122 119 116 113 111 111 111 114 120 130 141 153 178 232 264 276 285 295 306 316 326 333 334 330 325 322 322 322 320 318 317 315 314 313 312 312 311 309 308 308 308 308
123 122 120 119 117 117 117 117 118 117 118 119 120 122 124 126 128 131 133 134 132 130 129 128 128 126 125 123 121 118 116 115 117 119 124 132 146 157 168 175 203 262 286 294 302 310 318 326 332 333 330 326 325 325 325 323 322 320 319 317 317 316 315 313 312 311 311 313 316
119 118 117 116 115 116 117 118 119 120 120 122 124 126 128 129 130 131 133 134 132 130 129 128 128 127 126 125 123 123 122 124 130 136 144 155 170 184 193 194 196 231 282 298 306 313 321 327 332 333 330 327 326 326 326 326 325 323 322 321 320 318 316 314 312 311 312 313 315
117 118 117 117 117 118 119 120 122 123 124 125 126 127 129 129 129 130 131 131 131 129 128 127 126 125 123 122 122 123 125 130 136 146 157 174 200 270 308 297 223 218 272 300 311 319 325 330 332 332 330 328 326 327 327 327 326 325 325 323 322 320 317 315 314 314 314 314 315
119 119 120 120 120 121 121 122 123 125 126 127 127 127 127 127 127 127 128 129 128 127 126 124 123 121 119 118 119 122 126 129 135 144 157 184 292 335 346 351 2 6 326 312 318 326 330 333 333 332 331 329 328 328 329 329 328 327 325 325 324 323 321 318 317 318 318 318 319
119 120 120 121 123 124 124 123 124 126 128 129 128 127 127 127 127 127 127 127 126 125 122 121 120 120 120 122 125 132 139 145 150 157 310 330 341 346 350 353 354 346 303 287 303 320 330 333 334 334 334 333 332 331 331 331 329 328 327 326 326 325 324 323 321 321 321 321 319